China Securities Depository and Clearing (Hong Kong) Company Limited 中國證券登記結算(香港)有限公司

CCASS holding changes from 2026-05-04 to 2026-05-05

From
to
Show unchanged holdings

"Value change" is the value of the holding change at the closing price at the end of the period. Hit the "stake change" to see history. "*"=stock is suspended or in parallel trading. Last close on this counter is used.

Some data are hidden to fit your display. Rotate?

Row Last
code
Name Holding Change Stake
%
Stake
Δ %
Value
change
Last
holding
1 0981 SEMICONDUCTOR MANUFACTURING INTERNATIONAL CORPORATION:O 1,029,182,127 16,192,355 12.84 0.20 1,146,418,734 2026-05-05
2 3690 Meituan:B 863,197,994 7,193,315 15.43 0.13 601,001,468 2026-05-05
3 1347 HUA HONG SEMICONDUCTOR LIMITED:O 209,704,394 3,776,000 12.07 0.22 449,344,000 2026-05-05
4 0175 GEELY AUTOMOBILE HOLDINGS LIMITED:O 536,394,258 13,405,000 4.97 0.12 308,315,000 2026-05-05
5 2800 Tracker Fund of Hong Kong:Unit 87,477,510 10,796,000 1.65 0.20 280,911,920 2026-05-05
6 0883 CNOOC LIMITED:O 3,772,556,776 8,529,137 7.94 0.02 243,592,153 2026-05-05
7 1171 Yankuang Energy Group Company Limited:H 827,560,236 12,869,000 20.31 0.32 207,319,590 2026-05-05
8 3986 GigaDevice Semiconductor Inc.:H 2,988,000 338,500 8.99 1.02 157,741,000 2026-05-05
9 0819 Tianneng Power International Limited:O 161,020,272 23,056,000 14.30 2.05 154,244,640 2026-05-05
10 1810 Xiaomi Corporation:B 2,940,003,093 4,272,480 13.70 0.02 130,139,741 2026-05-05
11 6166 CIG SHANGHAI CO., LTD.:H 11,886,100 871,750 15.42 1.13 119,952,800 2026-05-05
12 2637 Fujian Haixi Pharmaceuticals Co., Ltd.:H 1,930,900 455,500 2.45 0.58 111,233,100 2026-05-05
13 2328 PICC PROPERTY AND CASUALTY COMPANY LIMITED:H 686,855,765 7,676,000 9.96 0.11 107,233,720 2026-05-05
14 0916 China Longyuan Power Group Corporation Limited:H 489,698,967 14,034,000 14.76 0.42 95,852,220 2026-05-05
15 1211 BYD COMPANY LIMITED:H 278,425,123 872,700 7.56 0.02 88,142,700 2026-05-05
16 2659 Shanghai Bao Pharmaceuticals Co., Ltd.:H 4,379,000 3,148,800 2.84 2.04 81,805,824 2026-05-05
17 2099 CHINA GOLD INTERNATIONAL RESOURCES CORP. LTD.:O 54,916,073 480,738 13.85 0.12 79,369,844 2026-05-05
18 0020 SenseTime Group Inc.:B 7,584,814,286 36,750,000 18.19 0.09 73,500,000 2026-05-05
19 2318 PING AN INSURANCE (GROUP) COMPANY OF CHINA, LTD.:H 330,212,936 1,077,000 4.43 0.01 68,389,500 2026-05-05
20 2601 China Pacific Insurance (Group) Co., Ltd.:H 356,501,806 1,953,800 12.85 0.07 67,327,948 2026-05-05
21 1787 Shandong Gold Mining Co., Ltd.:H 276,160,379 2,349,996 27.74 0.24 65,517,888 2026-05-05
22 0998 China CITIC Bank Corporation Limited:H 778,638,868 7,725,000 5.23 0.05 62,340,750 2026-05-05
23 3750 Contemporary Amperex Technology Co., Limited:H 3,297,288 86,600 1.51 0.04 56,723,000 2026-05-05
24 2228 XtalPi Holdings Limited:O 910,396,052 5,644,568 21.16 0.13 52,720,265 2026-05-05
25 3328 Bank of Communications Co., Ltd.:H 839,550,233 7,267,000 2.40 0.02 52,177,060 2026-05-05
26 1339 People's Insurance Company (Group) of China Limited (The):H 1,003,393,395 9,245,000 11.50 0.11 48,906,050 2026-05-05
27 0291 China Resources Beer (Holdings) Company Limited:O 76,982,462 1,813,000 2.37 0.06 48,298,320 2026-05-05
28 1818 Zhaojin Mining Industry Company Limited:H 443,653,520 1,651,500 15.40 0.06 46,043,820 2026-05-05
29 0268 KINGDEE INTERNATIONAL SOFTWARE GROUP COMPANY LIMITED:O 756,819,433 5,299,000 21.32 0.15 45,465,420 2026-05-05
30 9973 CHERY AUTOMOBILE CO., LTD:H 43,889,649 1,528,100 1.86 0.06 44,498,272 2026-05-05
31 1277 Kinetic Development Group Limited:O 158,142,000 18,984,000 1.88 0.23 44,422,560 2026-05-05
32 0902 HUA NENG POWER INTERNATIONAL, INC.:H 716,188,049 6,934,000 15.24 0.15 43,406,840 2026-05-05
33 1109 CHINA RESOURCES LAND LIMITED:O 316,504,604 1,290,500 4.44 0.02 42,741,360 2026-05-05
34 6160 BeOne Medicine Ltd.:O 100,865,968 237,500 6.54 0.02 41,990,000 2026-05-05
35 0991 DATANG INTERNATIONAL POWER GENERATION COMPANY LIMITED:H 308,372,000 14,528,000 5.05 0.24 41,985,920 2026-05-05
36 2269 WuXi Biologics (Cayman) Inc.:O 589,981,585 1,237,500 14.26 0.03 41,877,000 2026-05-05
37 3692 Hansoh Pharmaceutical Group Company Limited:O 264,003,230 1,102,000 4.35 0.02 40,597,680 2026-05-05
38 0300 Midea Group Co., Ltd.:H 67,953,392 465,500 10.44 0.07 40,335,575 2026-05-05
39 3858 Jiaxin International Resources Investment Limited:O 28,054,880 432,400 6.16 0.09 37,618,800 2026-05-05
40 2517 Guoquan Food (Shanghai) Co., Ltd.:H 206,327,865 11,077,200 7.86 0.42 37,108,620 2026-05-05
41 3900 Greentown China Holdings Limited:O 388,605,512 3,663,000 15.30 0.14 35,274,690 2026-05-05
42 2259 Zijin Gold International Company Limited:O 26,515,495 224,586 0.99 0.01 33,687,900 2026-05-05
43 1258 China Nonferrous Mining Corporation Limited:O 294,675,697 2,651,000 7.55 0.07 33,614,680 2026-05-05
44 0285 BYD Electronic (International) Company Limited:O 181,883,871 1,157,000 8.07 0.05 31,354,700 2026-05-05
45 6881 China Galaxy Securities Co., Ltd.:H 825,461,007 3,731,500 22.36 0.10 31,046,080 2026-05-05
46 0857 PETROCHINA COMPANY LIMITED:H 2,688,149,785 2,637,097 12.74 0.01 30,801,293 2026-05-05
47 0763 ZTE CORPORATION:H 215,136,332 1,161,600 28.48 0.15 30,294,528 2026-05-05
48 1088 China Shenhua Energy Company Limited:H 858,238,953 625,500 25.41 0.02 29,923,920 2026-05-05
49 1858 Beijing Chunlizhengda Medical Instruments Co., Ltd.:H 12,316,250 2,936,000 12.95 3.09 29,888,480 2026-05-05
50 1908 C&D International Investment Group Limited:O 96,379,878 1,961,000 4.30 0.09 29,434,610 2026-05-05
51 2465 Jiangsu Lopal Tech. Co., Ltd.:H 19,829,500 1,276,000 16.52 1.06 29,296,960 2026-05-05
52 2333 GREAT WALL MOTOR COMPANY LIMITED (CN):H 435,694,830 2,383,000 18.79 0.10 28,024,080 2026-05-05
53 3998 Bosideng International Holdings Limited:O 695,052,095 6,320,000 5.95 0.05 27,239,200 2026-05-05
54 2319 CHINA MENGNIU DAIRY COMPANY LIMITED:O 280,009,216 1,573,000 7.22 0.04 27,228,630 2026-05-05
55 1177 SINO BIOPHARMACEUTICAL LIMITED:O 1,849,068,495 4,704,000 9.86 0.03 25,589,760 2026-05-05
56 1164 CGN Mining Company Limited:O 495,282,008 6,080,000 6.52 0.08 23,894,400 2026-05-05
57 1880 China Tourism Group Duty Free Corporation Limited:H 12,932,800 395,900 10.32 0.32 23,892,565 2026-05-05
58 1336 New China Life Insurance Company Ltd.:H 206,961,101 461,871 20.01 0.04 23,578,515 2026-05-05
59 0914 Anhui Conch Cement Company Limited:H 128,486,914 1,190,000 9.89 0.09 23,181,200 2026-05-05
60 3323 China National Building Material Company Limited:H 629,731,947 4,390,000 16.94 0.12 21,818,300 2026-05-05
61 0189 DONGYUE GROUP LIMITED:O 329,744,246 1,627,000 19.03 0.09 21,297,430 2026-05-05
62 3993 CMOC Group Limited (CN):H 253,722,066 1,147,084 6.45 0.03 20,922,812 2026-05-05
63 2155 Morimatsu International Holdings Company Limited:O 85,778,300 3,144,000 6.89 0.25 20,813,280 2026-05-05
64 1988 China Minsheng Banking Corp., Ltd.:H 349,829,045 5,840,000 4.20 0.07 20,790,400 2026-05-05
65 6682 Phancy Group Co., Ltd.:H 80,017,100 570,900 22.33 0.16 20,518,146 2026-05-05
66 2238 Guangzhou Automobile Group Co., Ltd.:H 627,614,605 7,214,000 22.31 0.26 20,127,060 2026-05-05
67 2865 Hainan Drinda New Energy Technology Co., Ltd.:O 22,923,700 589,100 27.92 0.72 20,123,656 2026-05-05
68 1898 China Coal Energy Company Limited:H 628,070,683 1,399,000 15.29 0.03 20,019,690 2026-05-05
69 0546 Fufeng Group Limited:O 110,364,403 3,177,000 4.40 0.13 19,888,020 2026-05-05
70 3759 Pharmaron Beijing Co., Ltd.:H 82,476,441 943,500 23.38 0.27 19,153,050 2026-05-05
71 2889 PATEO CONNECT Technology (Shanghai) Corporation:H 698,680 128,680 0.98 0.18 18,658,600 2026-05-05
72 2020 ANTA Sports Products Limited:O 82,344,107 236,400 2.94 0.01 18,486,480 2026-05-05
73 2635 Nuobikan AI Technology (Chengdu) Co., Ltd.:H 3,199,000 741,100 1.05 0.24 17,816,044 2026-05-05
74 9896 MINISO Group Holding Limited:O 42,120,513 613,200 3.40 0.05 17,660,160 2026-05-05
75 2196 Shanghai Fosun Pharmaceutical (Group) Co., Ltd.:H 128,925,940 918,500 23.83 0.17 17,286,170 2026-05-05
76 9927 Seres Group Co., Ltd. (CN):H 4,759,400 246,400 4.38 0.23 17,272,640 2026-05-05
77 2233 WEST CHINA CEMENT LIMITED:O 1,034,008,000 6,876,000 18.93 0.13 16,914,960 2026-05-05
78 6651 Beijing 51WORLD Digital Twin Technology Co., Ltd.:H 3,689,400 310,800 0.93 0.08 16,643,340 2026-05-05
79 1772 GANFENG LITHIUM GROUP CO., LTD.:H 55,597,353 190,000 11.51 0.04 16,435,000 2026-05-05
80 0267 CITIC Limited (HK):O 633,900,878 1,249,000 2.18 0.00 16,162,060 2026-05-05
81 2883 China Oilfield Services Limited:H 203,728,028 1,680,000 11.25 0.09 15,892,800 2026-05-05
82 9969 InnoCare Pharma Limited:O 321,659,960 1,151,000 18.25 0.07 15,711,150 2026-05-05
83 6127 JOINN LABORATORIES (CHINA) CO., LTD.:H 28,983,510 761,180 24.36 0.64 15,695,532 2026-05-05
84 0968 XINYI SOLAR HOLDINGS LIMITED:O 911,918,689 5,244,000 9.97 0.06 15,679,560 2026-05-05
85 3606 Fuyao Glass Industry Group Co., Ltd.:H 19,901,514 258,000 3.28 0.04 15,673,500 2026-05-05
86 6855 Ascentage Pharma Group International:O 129,052,608 358,300 34.57 0.10 15,363,904 2026-05-05
87 6088 FOXCONN INTERCONNECT TECHNOLOGY LIMITED:O 323,856,738 1,887,000 4.43 0.03 15,152,610 2026-05-05
88 2525 Hesai Group:B 1,506,640 85,860 1.16 0.07 14,536,098 2026-05-05
89 1364 Guming Holdings Limited:O 72,476,566 568,810 3.05 0.02 14,356,764 2026-05-05
90 9987 Yum China Holdings, Inc.:O 14,223,481 36,150 4.06 0.01 13,722,540 2026-05-05
91 0836 CHINA RESOURCES POWER HOLDINGS COMPANY LIMITED:O 241,839,423 698,000 4.67 0.01 13,666,840 2026-05-05
92 0358 Jiangxi Copper Company Limited:H 64,884,100 370,000 4.68 0.03 13,549,400 2026-05-05
93 0123 Yuexiu Property Company Limited:O 156,400,748 3,475,000 3.89 0.09 13,448,250 2026-05-05
94 2595 GenFleet Therapeutics (Shanghai) Inc.:H 11,211,600 325,400 3.32 0.10 13,439,020 2026-05-05
95 6066 CSC Financial Co., Ltd.:H 188,352,500 1,117,500 14.94 0.09 13,175,325 2026-05-05
96 0576 ZHEJIANG EXPRESSWAY CO., LTD.:H 667,300,760 1,802,000 32.98 0.09 13,100,540 2026-05-05
97 0564 ZCZL Industrial Technology Group Company Limited (CN):H 31,110,400 749,000 12.79 0.31 13,062,560 2026-05-05
98 2676 Suzhou Novosense Microelectronics Co., Ltd.:H 1,800,200 85,400 8.96 0.42 12,810,000 2026-05-05
99 0586 China Conch Venture Holdings Limited:O 302,108,389 1,025,500 16.86 0.06 12,634,160 2026-05-05
100 1030 SEAZEN GROUP LIMITED:O 736,269,391 5,638,000 10.14 0.08 12,403,600 2026-05-05
101 1801 Innovent Biologics, Inc.:O 344,792,632 132,971 19.87 0.01 12,233,332 2026-05-05
102 0568 SHANDONG MOLONG PETROLEUM MACHINERY COMPANY LIMITED:H 48,875,200 1,386,400 19.08 0.54 12,061,680 2026-05-05
103 0322 TINGYI (CAYMAN ISLANDS) HOLDING CORP.:O 148,449,258 990,000 2.63 0.02 12,028,500 2026-05-05
104 2315 Biocytogen Pharmaceuticals (Beijing) Co., Ltd.:H 15,727,369 223,500 14.20 0.20 11,689,050 2026-05-05
105 0995 ANHUI EXPRESSWAY COMPANY LIMITED:H 84,456,028 774,000 15.55 0.14 11,633,220 2026-05-05
106 2038 FIH Mobile Limited:O 37,395,120 471,000 4.79 0.06 11,445,300 2026-05-05
107 0868 XINYI GLASS HOLDINGS LIMITED:O 174,440,950 1,199,000 3.94 0.03 11,390,500 2026-05-05
108 0135 KUNLUN ENERGY COMPANY LIMITED:O 316,942,905 1,494,000 3.66 0.02 11,219,940 2026-05-05
109 2388 BOC HONG KONG (HOLDINGS) LIMITED (HK):O 103,886,103 244,000 0.98 0.00 10,892,160 2026-05-05
110 9636 JF SmartInvest Holdings Ltd:O 24,353,765 310,000 5.21 0.07 10,713,600 2026-05-05
111 1066 Shandong Weigao Group Medical Polymer Company Limited:H 202,936,145 3,060,400 4.54 0.07 10,650,192 2026-05-05
112 2331 LI NING COMPANY LIMITED:O 277,879,433 538,000 10.75 0.02 10,491,000 2026-05-05
113 0241 Alibaba Health Information Technology Limited:O 1,377,021,664 2,362,000 8.51 0.01 10,440,040 2026-05-05
114 1548 Genscript Biotech Corporation:O 383,346,437 766,000 17.52 0.04 10,394,620 2026-05-05
115 3933 United Laboratories International Holdings Limited (The):O 407,965,409 1,088,000 20.68 0.06 10,216,320 2026-05-05
116 0856 VSTECS Holdings Limited:O 68,362,000 958,000 4.78 0.07 10,154,800 2026-05-05
117 0101 HANG LUNG PROPERTIES LIMITED:O 204,905,799 1,087,000 4.05 0.02 10,098,230 2026-05-05
118 3939 Wanguo Gold Group Limited:O 270,939,274 926,252 6.12 0.02 10,086,884 2026-05-05
119 0921 Hisense Home Appliances Group Co., Ltd.:H 25,530,786 439,000 5.56 0.10 10,053,100 2026-05-05
120 1776 GF Securities Co., Ltd.:H 931,461,090 570,000 48.49 0.03 9,997,800 2026-05-05
121 3898 Zhuzhou CRRC Times Electric Co., Ltd.:H 51,009,724 273,500 10.43 0.06 9,906,170 2026-05-05
122 6865 Flat Glass Group Co., Ltd.:H 145,578,737 1,106,000 32.96 0.25 9,633,260 2026-05-05
123 9911 Newborn Town Inc.:O 64,888,000 1,054,000 4.59 0.07 9,591,400 2026-05-05
124 6110 Topsports International Holdings Limited:O 251,055,668 3,352,000 4.05 0.05 9,586,720 2026-05-05
125 0956 China Suntien Green Energy Corporation Limited:H 583,073,641 2,358,000 27.17 0.11 8,983,980 2026-05-05
126 6030 CITIC Securities Company Limited:H 404,984,076 325,500 15.46 0.01 8,983,800 2026-05-05
127 0551 YUE YUEN INDUSTRIAL (HOLDINGS) LIMITED:O 65,122,240 615,000 4.06 0.04 8,935,950 2026-05-05
128 1635 Shanghai Dazhong Public Utilities (Group) Co., Ltd.:H 125,855,000 2,855,000 23.58 0.54 8,850,500 2026-05-05
129 1033 Sinopec Oilfield Service Corporation:H 409,052,000 10,374,000 7.56 0.19 8,402,940 2026-05-05
130 0388 HONG KONG EXCHANGES AND CLEARING LIMITED:O 35,759,550 19,800 2.82 0.00 8,280,360 2026-05-05
131 0688 CHINA OVERSEAS LAND & INVESTMENT LIMITED:O 179,340,555 590,500 1.64 0.01 8,261,095 2026-05-05
132 0136 China Ruyi Holdings Limited:O 2,298,899,950 5,732,000 13.68 0.03 8,254,080 2026-05-05
133 2493 Mabwell (Shanghai) Bioscience Co., Ltd.:H 844,000 303,000 1.79 0.64 8,253,720 2026-05-05
134 0696 TRAVELSKY TECHNOLOGY LIMITED:H 150,798,265 827,000 16.17 0.09 8,154,220 2026-05-05
135 2400 XD Inc.:O 79,211,311 127,800 16.09 0.03 7,974,720 2026-05-05
136 2602 Onewo Inc.:H 70,621,300 455,800 6.12 0.04 7,821,528 2026-05-05
137 2128 China Lesso Group Holdings Limited:O 173,168,000 1,669,000 5.58 0.05 7,794,230 2026-05-05
138 3360 Far East Horizon Limited:O 439,183,719 977,000 9.14 0.02 7,317,730 2026-05-05
139 2157 Lepu Biopharma Co., Ltd.:H 345,763,468 1,449,000 19.16 0.08 7,288,470 2026-05-05
140 2162 Keymed Biosciences Inc.:O 75,060,930 100,000 25.13 0.03 7,285,000 2026-05-05
141 1304 Fortior Technology (Shenzhen) Co., Ltd.:H 2,377,730 56,800 11.03 0.26 7,179,520 2026-05-05
142 0917 Qunabox Group Limited:O 22,977,633 446,900 8.67 0.17 7,150,400 2026-05-05
143 0066 MTR CORPORATION LIMITED:O 5,148,817 206,000 0.08 0.00 6,979,280 2026-05-05
144 0525 GUANGSHEN RAILWAY COMPANY LIMITED:H 275,556,710 2,876,000 19.25 0.20 6,873,640 2026-05-05
145 3668 YANCOAL AUSTRALIA LTD:O 57,785,950 166,708 4.38 0.01 6,801,686 2026-05-05
146 0220 Uni-President China Holdings Ltd.:O 219,376,936 925,000 5.08 0.02 6,761,750 2026-05-05
147 2580 Aux Electric Co., Ltd.:O 30,425,400 720,400 1.92 0.05 6,606,068 2026-05-05
148 2589 AUNTEA JENNY (SHANGHAI) INDUSTRIAL CO., LTD.:O 111,240 40,380 0.19 0.07 6,598,092 2026-05-05
149 9660 Horizon Robotics:B 1,638,070,421 915,600 13.09 0.01 6,454,980 2026-05-05
150 2367 Giant Biogene Holding Co., Ltd:O 91,141,150 211,400 8.58 0.02 6,405,420 2026-05-05
151 6060 ZhongAn Online P & C Insurance Co., Ltd.:H 238,336,608 533,000 14.58 0.03 6,374,680 2026-05-05
152 6031 SANY HEAVY INDUSTRY CO., LTD.:H 9,872,400 295,000 1.37 0.04 6,277,600 2026-05-05
153 3288 Foshan Haitian Flavouring and Food Company Ltd.:H 17,913,900 181,300 6.15 0.06 6,243,972 2026-05-05
154 0013 HUTCHMED (China) Limited:O 159,232,542 298,500 18.25 0.03 6,202,830 2026-05-05
155 2617 TransThera Sciences (Nanjing), Inc.:H 4,202,500 116,500 1.36 0.04 6,058,000 2026-05-05
156 0966 CHINA TAIPING INSURANCE HOLDINGS COMPANY LIMITED:O 338,371,093 260,400 9.41 0.01 5,937,120 2026-05-05
157 1989 Delton Technology (Guangzhou) Inc.:H 3,203,800 31,600 6.96 0.07 5,928,160 2026-05-05
158 2096 Simcere Pharmaceutical Group Limited:O 201,473,257 505,000 7.76 0.02 5,918,600 2026-05-05
159 1276 Jiangsu Hengrui Pharmaceuticals Co., Ltd.:H 33,970,896 88,800 13.16 0.03 5,887,440 2026-05-05
160 9858 China Youran Dairy Group Limited:O 676,695,220 1,529,000 16.14 0.04 5,733,750 2026-05-05
161 0288 WH Group Limited (KY):O 457,584,060 578,000 3.57 0.00 5,531,460 2026-05-05
162 1910 Samsonite Group S.A.:O 31,108,800 379,200 2.24 0.03 5,414,976 2026-05-05
163 3696 InSilico Medicine Cayman TopCo:O 9,602,561 86,500 1.68 0.02 5,388,950 2026-05-05
164 1788 Guotai Junan International Holdings Limited:O 743,456,777 2,206,000 7.80 0.02 5,338,520 2026-05-05
165 1361 361 Degrees International Limited:O 137,717,000 1,022,000 6.66 0.05 5,324,620 2026-05-05
166 2715 Estun Automation Co., Ltd.:H 1,657,000 387,800 1.71 0.40 5,153,862 2026-05-05
167 1209 China Resources Mixc Lifestyle Services Limited:O 99,896,628 108,800 4.38 0.00 5,087,488 2026-05-05
168 6809 Montage Technology Co., Ltd.:H 2,217,900 17,700 2.93 0.02 4,874,580 2026-05-05
169 1816 CGN Power Co., Ltd.:H 1,144,032,793 1,372,000 10.25 0.01 4,815,720 2026-05-05
170 0817 China Jinmao Holdings Group Limited:O 934,087,575 2,866,000 6.91 0.02 4,814,880 2026-05-05
171 2186 Luye Pharma Group Ltd.:O 686,726,136 1,894,000 17.19 0.05 4,791,820 2026-05-05
172 0598 SINOTRANS LIMITED:H 244,449,789 956,000 12.12 0.05 4,770,440 2026-05-05
173 9887 Nanjing Leads Biolabs Co., Ltd.:H 6,750,000 61,300 4.40 0.04 4,750,750 2026-05-05
174 6680 JL MAG RARE-EARTH CO., LTD.:H 18,881,160 243,200 8.04 0.10 4,703,488 2026-05-05
175 9981 Shenzhen Woer Heat-Shrinkable Material Co., Ltd. (CN):H 11,643,600 287,600 8.32 0.21 4,555,584 2026-05-05
176 6818 China Everbright Bank Company Limited:H 475,823,981 1,432,144 3.75 0.01 4,453,968 2026-05-05
177 6693 Chifeng Jilong Gold Mining Co., Ltd.:H 37,265,562 119,000 15.76 0.05 4,336,360 2026-05-05
178 0881 Zhongsheng Group Holdings Limited:O 123,982,090 615,500 5.24 0.03 4,290,035 2026-05-05
179 3866 Bank of Qingdao Co., Ltd.:H 338,630,400 862,000 14.77 0.04 4,275,520 2026-05-05
180 2869 Greentown Service Group Co. Ltd.:O 227,069,729 888,000 7.24 0.03 4,049,280 2026-05-05
181 6806 Shenwan Hongyuan Group Co., Ltd.:H 474,568,000 1,419,200 18.95 0.06 4,030,528 2026-05-05
182 1060 Damai Entertainment Holdings Limited (BM):O 2,534,863,000 6,910,000 8.46 0.02 4,007,800 2026-05-05
183 0012 HENDERSON LAND DEVELOPMENT COMPANY LIMITED:O 59,260,756 123,000 1.22 0.00 4,007,340 2026-05-05
184 2603 Xiamen Jihong Co., Ltd:H 11,700,500 267,500 17.23 0.39 3,900,150 2026-05-05
185 0512 Grand Pharmaceutical Group Limited:O 414,283,642 626,000 11.67 0.02 3,874,940 2026-05-05
186 2507 Cirrus Aircraft Limited:O 20,865,200 99,600 5.70 0.03 3,780,816 2026-05-05
187 0975 Mongolian Mining Corporation:O 50,235,000 390,000 4.84 0.04 3,627,000 2026-05-05
188 2510 T.S. Lines Limited:O 31,514,813 445,000 1.89 0.03 3,626,750 2026-05-05
189 2799 China CITIC Financial Asset Management Co., Ltd.:H 2,186,871,000 4,793,000 6.18 0.01 3,594,750 2026-05-05
190 1478 Q Technology (Group) Company Limited:O 41,678,000 400,000 3.49 0.03 3,496,000 2026-05-05
191 1083 Towngas Smart Energy Company Limited:O 483,413,919 970,000 13.17 0.03 3,453,200 2026-05-05
192 1907 China Risun Group Limited (KY):O 279,094,000 1,130,000 6.52 0.03 3,446,500 2026-05-05
193 3888 Kingsoft Corporation Limited:O 269,788,985 151,400 19.52 0.01 3,439,808 2026-05-05
194 2877 CHINA SHINEWAY PHARMACEUTICAL GROUP LIMITED:O 21,873,346 373,000 2.64 0.05 3,431,600 2026-05-05
195 3032 Hang Seng TECH Index ETF:Unit 88,745,800 689,800 6.56 0.05 3,382,779 2026-05-05
196 3896 Kingsoft Cloud Holdings Limited:O 949,310,215 432,000 20.95 0.01 3,382,560 2026-05-05
197 0144 China Merchants Port Holdings Company Limited:O 149,447,369 216,000 3.56 0.01 3,380,400 2026-05-05
198 3908 China International Capital Corporation Limited:H 305,656,900 155,600 16.06 0.01 3,295,608 2026-05-05
199 1896 Maoyan Entertainment:O 112,077,803 559,400 9.64 0.05 3,289,272 2026-05-05
200 0392 BEIJING ENTERPRISES HOLDINGS LIMITED:O 46,916,500 101,500 3.73 0.01 3,158,680 2026-05-05
201 1766 CRRC Corporation Limited:H 422,374,405 615,000 9.66 0.01 3,118,050 2026-05-05
202 9611 Shanghai Longcheer Technology Co., Ltd.:H 2,028,200 139,800 3.88 0.27 3,014,088 2026-05-05
203 0839 China Education Group Holdings Limited (KY):O 148,997,846 1,520,000 5.32 0.05 2,994,400 2026-05-05
204 9688 Zai Lab Limited:O 282,029,790 180,100 24.87 0.02 2,964,446 2026-05-05
205 0293 CATHAY PACIFIC AIRWAYS LIMITED:O 86,494,604 248,000 1.42 0.00 2,909,040 2026-05-05
206 0826 Tiangong International Company Limited:O 308,392,131 850,000 11.32 0.03 2,822,000 2026-05-05
207 1357 Meitu, Inc.:O 763,054,632 673,500 16.77 0.01 2,821,965 2026-05-05
208 9995 RemeGen Co., Ltd.:H 57,309,084 29,000 27.48 0.01 2,818,800 2026-05-05
209 1729 TIME INTERCONNECT TECHNOLOGY LIMITED:O 82,435,861 127,000 3.94 0.01 2,809,240 2026-05-05
210 2007 Country Garden Holdings Company Limited:O 3,173,576,660 10,310,000 7.19 0.02 2,783,700 2026-05-05
211 1099 SINOPHARM GROUP CO. LTD.:H 87,860,310 144,000 6.55 0.01 2,687,040 2026-05-05
212 2650 Shanghai Zhida Technology Development Co., Ltd.:H 1,356,150 124,350 0.45 0.04 2,623,785 2026-05-05
213 0165 CHINA EVERBRIGHT LIMITED (HK):O 296,150,403 394,000 17.57 0.02 2,553,120 2026-05-05
214 2701 NSING TECHNOLOGIES INC.:H 8,740,200 204,400 9.20 0.22 2,514,120 2026-05-05
215 2607 Shanghai Pharmaceuticals Holding Co., Ltd.:H 49,422,800 205,300 5.38 0.02 2,502,607 2026-05-05
216 6185 CanSino Biologics Inc.:H 22,839,300 88,400 17.22 0.07 2,494,648 2026-05-05
217 1528 Red Star Macalline Group Corporation Ltd.:H 132,023,247 1,708,454 17.81 0.23 2,477,258 2026-05-05
218 2643 CaoCao Inc.:O 22,115,513 102,500 3.80 0.02 2,414,900 2026-05-05
219 1877 Shanghai Junshi Biosciences Co., Ltd.:H 67,957,669 95,200 26.11 0.04 2,366,672 2026-05-05
220 0811 XINHUA WINSHARE PUBLISHING AND MEDIA CO., LTD.:H 107,759,014 230,000 24.38 0.05 2,364,400 2026-05-05
221 2097 MIXUE Group:H 3,944,400 8,000 2.61 0.01 2,345,600 2026-05-05
222 1108 Triumph New Energy Company Limited:H 48,394,000 702,000 19.36 0.28 2,302,560 2026-05-05
223 0270 GUANGDONG INVESTMENT LIMITED:O 258,968,533 278,000 3.96 0.00 2,260,140 2026-05-05
224 6186 China Feihe Limited:O 659,234,145 650,000 7.48 0.01 2,242,500 2026-05-05
225 0636 KLN Logistics Group Limited (BM):O 14,650,854 337,000 0.81 0.02 2,237,680 2026-05-05
226 6600 OneRobotics (Shenzhen) Co., Ltd.:H 1,025,900 21,400 0.46 0.01 2,206,340 2026-05-05
227 1997 Wharf Real Estate Investment Company Limited:O 24,660,419 90,000 0.81 0.00 2,201,400 2026-05-05
228 0119 Poly Property Group Co., Limited:O 403,538,794 1,093,000 10.56 0.03 2,120,420 2026-05-05
229 1963 Bank of Chongqing Co., Ltd.:H 65,514,819 259,000 4.15 0.02 2,110,850 2026-05-05
230 0016 SUN HUNG KAI PROPERTIES LIMITED:O 11,340,732 15,000 0.39 0.00 2,079,000 2026-05-05
231 9699 Hangzhou SF Intra-city Industrial Co., Ltd.:H 89,897,321 200,800 12.11 0.03 2,070,248 2026-05-05
232 2192 Medlive Technology Co., Ltd.:O 31,474,004 242,500 4.25 0.03 2,041,850 2026-05-05
233 2016 CHINA ZHESHANG BANK CO., LTD.:H 242,238,228 811,000 4.09 0.01 2,027,500 2026-05-05
234 2691 Nanhua Futures Co., Ltd.:H 13,058,500 204,000 12.13 0.19 2,011,440 2026-05-05
235 0002 CLP HOLDINGS LIMITED:O 19,434,992 26,500 0.77 0.00 1,995,450 2026-05-05
236 2587 HealthyWay Inc.:O 69,429,500 501,500 7.94 0.06 1,960,865 2026-05-05
237 1579 YIHAI INTERNATIONAL HOLDING LTD.:O 134,724,780 117,000 13.00 0.01 1,948,050 2026-05-05
238 1811 CGN New Energy Holdings Co., Ltd.:O 389,656,000 734,000 9.08 0.02 1,930,420 2026-05-05
239 0999 Xiaocaiyuan International Holding Ltd.:O 28,383,097 285,600 2.41 0.02 1,922,088 2026-05-05
240 2314 LEE & MAN PAPER MANUFACTURING LIMITED:O 174,130,286 579,000 4.05 0.01 1,875,960 2026-05-05
241 6969 Smoore International Holdings Limited:O 296,643,293 197,000 4.79 0.00 1,859,680 2026-05-05
242 0323 MAANSHAN IRON & STEEL COMPANY LIMITED:H 102,142,000 732,000 5.89 0.04 1,851,960 2026-05-05
243 9690 TUHU Car Inc.:A 53,635,617 136,700 7.07 0.02 1,833,147 2026-05-05
244 2611 GUOTAI HAITONG SECURITIES CO., LTD.:H 376,443,524 135,400 10.74 0.00 1,794,050 2026-05-05
245 1618 Metallurgical Corporation of China Ltd.:H 414,774,000 1,094,000 14.45 0.04 1,772,280 2026-05-05
246 2533 Black Sesame International Holding Limited:O 90,870,981 96,200 13.40 0.01 1,731,600 2026-05-05
247 2313 Shenzhou International Group Holdings Limited:O 47,186,649 37,500 3.14 0.00 1,717,500 2026-05-05
248 1610 COFCO Joycome Foods Limited:O 1,159,036,009 1,230,000 25.30 0.03 1,709,700 2026-05-05
249 6078 Hygeia Healthcare Holdings Co., Limited:O 84,717,502 146,000 13.81 0.02 1,693,600 2026-05-05
250 2556 Marketingforce Management Ltd:O 25,926,000 45,000 10.15 0.02 1,665,000 2026-05-05
251 0780 Tongcheng Travel Holdings Limited (KY):O 252,213,466 94,400 10.71 0.00 1,640,672 2026-05-05
252 1513 Livzon Pharmaceutical Group Inc.:H 41,941,156 59,900 13.99 0.02 1,638,864 2026-05-05
253 2005 SSY Group Limited (KY):O 352,246,000 676,000 12.15 0.02 1,629,160 2026-05-05
254 0083 SINO LAND COMPANY LIMITED:O 73,520,014 118,000 0.77 0.00 1,530,460 2026-05-05
255 6681 BrainAurora Medical Technology Limited:O 51,733,000 406,000 3.81 0.03 1,506,260 2026-05-05
256 2656 160 Health International Limited:O 5,406,750 77,750 1.61 0.02 1,461,700 2026-05-05
257 0604 SHENZHEN INVESTMENT LIMITED:O 152,070,047 1,736,000 1.71 0.02 1,458,240 2026-05-05
258 3306 JNBY Design Limited:O 29,014,000 68,000 5.44 0.01 1,433,440 2026-05-05
259 2473 XXF Group Holdings Limited:O 325,645,000 1,635,000 19.14 0.10 1,406,100 2026-05-05
260 0142 FIRST PACIFIC COMPANY LIMITED:O 69,749,000 238,000 1.64 0.01 1,358,980 2026-05-05
261 9890 Tanwan Inc.:O 23,848,400 81,800 4.56 0.02 1,339,884 2026-05-05
262 2666 Genertec Universal Medical Group Company Limited:O 327,440,500 233,000 16.26 0.01 1,316,450 2026-05-05
263 3441 CSOP FTSE East-West Equity Select ETF:Unit 10,485,500 112,300 12.48 0.13 1,313,910 2026-05-05
264 1330 Dynagreen Environmental Protection Group Co., Ltd.:H 84,136,020 204,000 20.81 0.05 1,311,720 2026-05-05
265 6178 Everbright Securities Company Limited:H 99,057,800 158,000 14.07 0.02 1,294,020 2026-05-05
266 0152 SHENZHEN INTERNATIONAL HOLDINGS LIMITED:O 256,836,208 174,553 10.51 0.01 1,281,219 2026-05-05
267 1071 HUADIAN POWER INTERNATIONAL CORPORATION LIMITED:H 402,553,736 300,000 23.44 0.02 1,272,000 2026-05-05
268 0347 Angang Steel Company Limited:H 73,042,400 850,000 5.17 0.06 1,232,500 2026-05-05
269 3613 BEIJING TONG REN TANG CHINESE MEDICINE COMPANY LIMITED:O 87,866,100 162,000 10.50 0.02 1,179,360 2026-05-05
270 1681 Consun Pharmaceutical Group Limited:O 7,935,000 75,000 0.94 0.01 1,161,750 2026-05-05
271 0371 Beijing Enterprises Water Group Limited:O 453,201,427 406,000 4.51 0.00 1,132,740 2026-05-05
272 0354 CHINASOFT INTERNATIONAL LIMITED:O 451,424,921 334,000 16.52 0.01 1,132,260 2026-05-05
273 0006 Power Assets Holdings Limited:O 47,860,557 17,000 2.25 0.00 1,105,000 2026-05-05
274 1044 HENGAN INTERNATIONAL GROUP COMPANY LIMITED:O 43,216,000 39,000 3.73 0.00 1,055,340 2026-05-05
275 1375 Central China Securities Co., Ltd.:H 266,929,000 548,000 22.33 0.05 1,052,160 2026-05-05
276 6090 BUTONG GROUP:O 2,898,900 26,300 3.21 0.03 1,022,544 2026-05-05
277 2410 TYK Medicines, Inc:H 51,722,000 102,000 13.61 0.03 971,040 2026-05-05
278 501 OmniVision Integrated Circuits Group, Inc.:H 1,469,400 11,300 2.90 0.02 954,850 2026-05-05
279 0553 NANJING PANDA ELECTRONICS COMPANY LIMITED:H 36,990,000 200,000 15.29 0.08 928,000 2026-05-05
280 0667 China East Education Holdings Limited:O 106,737,155 178,500 4.81 0.01 899,640 2026-05-05
281 2291 LEPU ScienTech Medical Technology (Shanghai) Co., Ltd.:H 6,290,000 80,000 1.81 0.02 896,000 2026-05-05
282 0008 PCCW LIMITED:O 212,198,943 139,000 2.74 0.00 856,240 2026-05-05
283 1128 Wynn Macau, Limited:O 41,265,817 151,200 0.78 0.00 845,208 2026-05-05
284 3442 CSOP Hang Seng HK-US Tech ETF:Unit 5,361,000 101,000 7.15 0.13 838,805 2026-05-05
285 2380 CHINA POWER INTERNATIONAL DEVELOPMENT LIMITED:O 970,107,126 252,000 7.84 0.00 831,600 2026-05-05
286 0460 Sihuan Pharmaceutical Holdings Group Ltd.:O 816,657,107 665,000 8.93 0.01 831,250 2026-05-05
287 0934 SINOPEC KANTONS HOLDINGS LIMITED:O 183,281,231 204,000 7.37 0.01 824,160 2026-05-05
288 0303 VTECH HOLDINGS LIMITED:O 15,949,711 12,903 6.29 0.01 789,018 2026-05-05
289 0325 Bloks Group Limited:O 7,148,506 11,400 2.88 0.00 744,990 2026-05-05
290 1057 Zhejiang Shibao Company Limited:H 40,891,000 158,000 18.86 0.07 733,120 2026-05-05
291 3868 Xinyi Energy Holdings Limited:O 892,748,518 538,000 10.48 0.01 677,880 2026-05-05
292 1735 Central New Energy Holding Group Limited:O 47,596,401 75,000 1.13 0.00 656,250 2026-05-05
293 3067 iShares Hang Seng TECH ETF:Unit 4,522,100 63,200 0.30 0.00 652,856 2026-05-05
294 6687 JST Group Corporation Limited:O 9,884,800 39,200 2.27 0.01 642,880 2026-05-05
295 0187 Beijing Jingcheng Machinery Electric Company Limited:H 19,754,000 156,000 19.75 0.16 641,160 2026-05-05
296 2498 RoboSense Technology Co., Ltd:O 68,140,393 19,700 14.43 0.00 638,674 2026-05-05
297 3899 CIMC Enric Holdings Limited:O 34,232,263 60,000 1.62 0.00 624,000 2026-05-05
298 2685 Quantgroup Holding Limited:O 1,012,500 30,000 0.20 0.01 582,000 2026-05-05
299 2858 Yixin Group Limited:O 622,940,500 304,000 9.18 0.00 571,520 2026-05-05
300 3110 Global X Hang Seng High Dividend Yield ETF:Unit 977,500 17,200 0.49 0.01 566,568 2026-05-05
301 2386 SINOPEC Engineering (Group) Co., Ltd.:H 149,933,312 89,000 9.10 0.01 561,590 2026-05-05
302 0909 Ming Yuan Cloud Group Holdings Limited:O 106,845,016 267,000 5.59 0.01 558,030 2026-05-05
303 2609 Bayzed Health Group Inc:O 32,335,200 100,800 2.45 0.01 553,392 2026-05-05
304 0003 HONG KONG AND CHINA GAS COMPANY LIMITED (THE):O 163,125,308 76,000 0.87 0.00 550,240 2026-05-05
305 6955 Shandong Boan Biotechnology Co., Ltd.:H 61,197,200 78,000 9.83 0.01 530,400 2026-05-05
306 1038 CK Infrastructure Holdings Limited:O 19,329,391 8,000 0.77 0.00 527,600 2026-05-05
307 9863 Zhejiang Leapmotor Technology Co., Ltd.:H 135,609,652 11,300 11.99 0.00 517,540 2026-05-05
308 2431 MINIEYE TECHNOLOGY CO., LTD:H 14,876,000 53,800 4.61 0.02 513,790 2026-05-05
309 1313 China Resources Building Materials Technology Holdings Limited:O 252,264,000 386,000 3.61 0.01 509,520 2026-05-05
310 2378 PRUDENTIAL PUBLIC LIMITED COMPANY:O 1,732,461 4,400 0.07 0.00 507,760 2026-05-05
311 0788 China Tower Corporation Limited:H 528,038,736 45,000 11.32 0.00 502,200 2026-05-05
312 2880 Liaoning Port Co., Ltd.:H 94,442,000 590,000 1.83 0.01 501,500 2026-05-05
313 1384 Deepexi Technology Co., Ltd.:H 4,348,000 10,800 1.33 0.00 495,504 2026-05-05
314 3698 Huishang Bank Corporation Limited:H 157,510,300 93,000 4.53 0.00 471,510 2026-05-05
315 3678 Soho Holly Futures Co., Ltd.:H 66,624,000 156,000 26.68 0.06 446,160 2026-05-05
316 0384 CHINA GAS HOLDINGS LIMITED:O 487,863,693 58,800 8.95 0.00 432,180 2026-05-05
317 1065 Tianjin Capital Environmental Protection Group Company Limited:H 192,160,000 94,000 56.52 0.03 401,380 2026-05-05
318 0548 Shenzhen Expressway Corporation Limited:H 133,694,000 54,000 17.89 0.01 397,980 2026-05-05
319 638 FIBOCOM WIRELESS INC.:H 9,288,600 35,200 6.88 0.03 391,072 2026-05-05
320 3969 China Railway Signal & Communication Corporation Limited:H 516,038,000 108,000 26.21 0.01 378,000 2026-05-05
321 2009 BBMG Corporation:H 345,229,000 469,000 14.76 0.02 351,750 2026-05-05
322 1193 China Resources Gas Group Limited:O 60,450,795 18,700 2.61 0.00 349,316 2026-05-05
323 2255 Haichang Ocean Park Holdings Ltd.:O 682,940,000 775,000 5.17 0.01 333,250 2026-05-05
324 1053 Chongqing Iron & Steel Company Limited:H 51,154,000 302,000 9.51 0.06 329,180 2026-05-05
325 9993 Radiance Holdings (Group) Company Limited:O 226,010,000 291,000 5.59 0.01 328,830 2026-05-05
326 1921 Dalipal Holdings Limited (KY):O 18,392,000 66,000 1.22 0.00 320,100 2026-05-05
327 0019 SWIRE PACIFIC LIMITED:A 9,780,000 3,500 1.26 0.00 299,775 2026-05-05
328 1308 SITC International Holdings Company Limited:O 58,247,658 9,000 2.16 0.00 299,340 2026-05-05
329 1349 SHANGHAI FUDAN-ZHANGJIANG BIO-PHARMACEUTICAL CO., LIMITED:H 65,723,100 102,000 20.16 0.03 279,480 2026-05-05
330 1876 Budweiser Brewing Company APAC Limited:O 87,934,089 33,800 0.66 0.00 274,794 2026-05-05
331 2477 WellCell Holdings Co., Limited:O 24,534,400 64,000 0.61 0.00 241,280 2026-05-05
332 2282 MGM China Holdings Limited:O 32,511,294 21,600 0.86 0.00 241,272 2026-05-05
333 6826 Shanghai Haohai Biological Technology Co., Ltd.:H 3,163,508 11,100 8.80 0.03 239,982 2026-05-05
334 0200 MELCO INTERNATIONAL DEVELOPMENT LIMITED:O 57,097,500 59,000 2.51 0.00 238,360 2026-05-05
335 2768 Qingdao Gon Technology Co., Ltd. (CN):H 1,183,400 4,400 3.94 0.01 209,352 2026-05-05
336 6069 SY Holdings Group Limited (KY):O 41,894,000 22,500 3.93 0.00 203,850 2026-05-05
337 6963 Sunshine Insurance Group Company Limited:H 520,088,003 54,000 14.95 0.00 196,020 2026-05-05
338 2692 Shenzhen Zhaowei Machinery & Electronics Co., Ltd. -H Shares:H 1,355,800 2,800 5.07 0.01 178,780 2026-05-05
339 2837 Global X Hang Seng TECH ETF:Unit 49,097,100 27,000 15.44 0.01 163,890 2026-05-05
340 2285 CHERVON HOLDINGS LIMITED:O 30,050,693 10,000 5.88 0.00 160,600 2026-05-05
341 0895 Dongjiang Environmental Company Limited:H 43,073,600 62,400 21.52 0.03 126,672 2026-05-05
342 2590 Beijing Geekplus Technology Co., Ltd.:H 10,201,800 6,400 1.00 0.00 111,872 2026-05-05
343 1196 Realord Group Holdings Limited:O 121,876,000 8,000 8.45 0.00 95,680 2026-05-05
344 0151 Want Want China Holdings Limited:O 109,159,201 20,000 0.92 0.00 89,400 2026-05-05
345 2273 GUSHENGTANG HOLDINGS LIMITED:O 50,532,661 2,700 22.01 0.00 79,650 2026-05-05
346 0336 HUABAO INTERNATIONAL HOLDINGS LIMITED:O 328,411,000 18,000 10.17 0.00 77,760 2026-05-05
347 1783 Envision Greenwise Holdings Limited:O 55,842,000 19,000 1.93 0.00 60,040 2026-05-05
348 0173 K. WAH INTERNATIONAL HOLDINGS LIMITED:O 58,842,073 22,000 1.87 0.00 49,940 2026-05-05
349 0440 DAH SING FINANCIAL HOLDINGS LIMITED:O 2,258,400 1,200 0.71 0.00 49,416 2026-05-05
350 0990 Deep Source Holdings Limited:O 941,660,000 60,000 6.36 0.00 46,800 2026-05-05
351 0639 SHOUGANG FUSHAN RESOURCES GROUP LIMITED:O 277,100,519 16,759 5.44 0.00 44,579 2026-05-05
352 9658 SUPER HI INTERNATIONAL HOLDING LTD.:O 15,205,703 4,000 2.34 0.00 44,320 2026-05-05
353 3677 Jiangsu Zenergy Battery Technologies Group Co., Ltd.:H 24,216,900 4,800 1.63 0.00 40,272 2026-05-05
354 2018 AAC TECHNOLOGIES HOLDINGS INC.:O 70,569,743 1,000 6.07 0.00 39,300 2026-05-05
355 0010 HANG LUNG GROUP LIMITED:O 15,034,000 2,000 1.10 0.00 32,520 2026-05-05
356 3069 ChinaAMC Hang Seng Biotech ETF:Unit 12,879,300 1,900 7.63 0.00 27,987 2026-05-05
357 2575 Xuanzhu Biopharmaceutical Co., Ltd.:H 2,647,000 1,000 1.65 0.00 22,140 2026-05-05
358 1883 CITIC Telecom International Holdings Limited:O 84,496,000 7,000 2.28 0.00 19,670 2026-05-05
359 1828 FWD Group Holdings Limited:O 1,794,300 600 0.14 0.00 17,988 2026-05-05
360 0506 China Foods Limited:O 59,165,113 4,000 2.12 0.00 14,320 2026-05-05
361 0023 BANK OF EAST ASIA, LIMITED (THE):O 306,841 800 0.01 0.00 10,824 2026-05-05
362 3380 Logan Group Company Limited:O 213,515,000 1,000 3.76 0.00 1,300 2026-05-05
363 0884 CIFI Holdings (Group) Co. Ltd.:O 619,925,306 -400 3.46 -0.00 -28 2026-05-05
364 9982 CENTRAL CHINA MANAGEMENT COMPANY LIMITED:O 21,670,578 -2,000 0.56 -0.00 -234 2026-05-05
365 2453 Concord Healthcare Group Co., Ltd.:H 20,766,800 -200 6.62 -0.00 -316 2026-05-05
366 1274 iMotion Automotive Technology (Suzhou) Co., Ltd.:H 14,332,900 -100 5.60 -0.00 -348 2026-05-05
367 0978 China Merchants Land Limited:O 117,756,000 -2,000 2.40 -0.00 -560 2026-05-05
368 3818 China Dongxiang (Group) Co., Ltd.:O 209,603,000 -2,000 3.56 -0.00 -900 2026-05-05
369 9668 CHINA BOHAI BANK CO., LTD.:H 142,554,000 -1,000 2.30 -0.00 -920 2026-05-05
370 0911 Qianhai Health Holdings Limited:O 183,300 -1,000 0.11 -0.00 -930 2026-05-05
371 1969 CHINA CHUNLAI EDUCATION GROUP CO., LTD.:O 15,337,000 -1,000 1.28 -0.00 -1,240 2026-05-05
372 2137 Brii Biosciences Limited:O 63,197,000 -1,000 8.76 -0.00 -1,330 2026-05-05
373 3813 Pou Sheng International (Holdings) Limited:O 14,358,000 -4,000 0.27 -0.00 -1,560 2026-05-05
374 2550 Easou Technology Holdings Limited:O 35,734,000 -1,000 7.90 -0.00 -1,980 2026-05-05
375 1916 JIANGXI BANK CO., LTD.:H 10,562,500 -3,000 0.79 -0.00 -2,070 2026-05-05
376 0493 GOME Retail Holdings Limited:O 8,682,691,000 -229,000 11.89 -0.00 -2,977 2026-05-05
377 2411 Shenzhen Pagoda Industrial (Group) Corporation Limited:H 61,402,500 -2,000 3.08 -0.00 -3,300 2026-05-05
378 2126 JW (Cayman) Therapeutics Co. Ltd:O 35,418,500 -1,500 8.50 -0.00 -3,525 2026-05-05
379 2121 AINNOVATION TECHNOLOGY GROUP CO., LTD:H 12,436,100 -1,000 2.24 -0.00 -4,000 2026-05-05
380 1909 Fire Rock Holdings Limited:O 4,040,055 -2,000 1.66 -0.00 -4,500 2026-05-05
381 6601 Cheerwin Group Limited:O 41,025,000 -2,000 3.08 -0.00 -4,960 2026-05-05
382 2777 Guangzhou R&F Properties Co., Ltd.:H 150,655,200 -14,800 4.01 -0.00 -5,328 2026-05-05
383 0535 Gemdale Properties and Investment Corporation Limited:O 1,043,674,000 -50,000 6.28 -0.00 -5,850 2026-05-05
384 3709 EEKA Fashion Holdings Limited:O 6,714,500 -1,000 0.95 -0.00 -6,300 2026-05-05
385 9939 Kintor Pharmaceutical Limited:O 60,533,000 -2,000 12.14 -0.00 -6,420 2026-05-05
386 1855 ZONQING Environmental Limited:O 33,342,000 -24,000 4.04 -0.00 -6,840 2026-05-05
387 3913 KWG Living Group Holdings Limited:O 99,735,874 -45,000 4.92 -0.00 -8,280 2026-05-05
388 9966 Alphamab Oncology:O 106,620,000 -1,000 11.01 -0.00 -10,150 2026-05-05
389 1812 Shandong Chenming Paper Holdings Limited:H 75,972,450 -11,000 14.38 -0.00 -10,340 2026-05-05
390 0345 VITASOY INTERNATIONAL HOLDINGS LIMITED:O 18,746,000 -2,000 1.84 -0.00 -12,640 2026-05-05
391 1317 CHINA MAPLE LEAF EDUCATIONAL SYSTEMS LIMITED:O 604,974,200 -52,000 20.92 -0.00 -13,260 2026-05-05
392 0256 CITYCHAMP WATCH & JEWELLERY GROUP LIMITED:O 538,906,000 -184,000 12.38 -0.00 -13,984 2026-05-05
393 9922 Jiumaojiu International Holdings Limited:O 105,646,000 -9,000 7.59 -0.00 -16,290 2026-05-05
394 6086 Fangzhou Inc.:O 28,615,500 -15,000 2.07 -0.00 -18,900 2026-05-05
395 0520 Xiabuxiabu Catering Management (China) Holdings Co., Ltd.:O 63,210,500 -46,500 5.82 -0.00 -19,763 2026-05-05
396 6169 China YuHua Education Corporation Limited:O 264,994,300 -50,000 6.18 -0.00 -21,250 2026-05-05
397 1873 VIVA BIOTECH HOLDINGS:O 176,746,500 -13,000 8.30 -0.00 -21,580 2026-05-05
398 1257 China Everbright Greentech Limited:O 236,784,100 -29,000 11.46 -0.00 -26,390 2026-05-05
399 2610 Nanshan Aluminium International Holdings Limited:O 10,090,018 -700 1.63 -0.00 -26,684 2026-05-05
400 9979 Greentown Management Holdings Company Limited:O 51,100,000 -12,000 2.56 -0.00 -26,760 2026-05-05
401 6968 Ganglong China Property Group Limited:O 275,973,000 -392,000 17.02 -0.02 -28,616 2026-05-05
402 1477 Ocumension Therapeutics:O 26,757,000 -4,000 3.28 -0.00 -29,120 2026-05-05
403 9618 JD.com, Inc.:A 664,763 -266 0.02 -0.00 -30,909 2026-05-05
404 2586 Dmall Inc.:O 31,234,600 -4,300 3.47 -0.00 -32,723 2026-05-05
405 2169 Canggang Railway Limited:O 1,472,980,000 -62,000 36.82 -0.00 -35,960 2026-05-05
406 3633 Zhongyu Energy Holdings Limited:O 39,823,000 -13,000 1.46 -0.00 -36,140 2026-05-05
407 0751 Skyworth Group Limited:O 42,703,100 -6,000 2.26 -0.00 -38,220 2026-05-05
408 0014 HYSAN DEVELOPMENT COMPANY LIMITED:O 15,462,325 -2,000 1.51 -0.00 -39,600 2026-05-05
409 2150 Nayuki Holdings Limited:O 39,873,000 -55,000 2.34 -0.00 -42,900 2026-05-05
410 0710 BOE Varitronix Limited:O 20,318,000 -10,000 2.57 -0.00 -43,000 2026-05-05
411 9989 SHENZHEN HEPALINK PHARMACEUTICAL GROUP CO., LTD.:H 36,455,000 -9,000 16.56 -0.00 -43,020 2026-05-05
412 1777 Fantasia Holdings Group Co., Limited:O 176,118,000 -655,500 3.05 -0.01 -44,574 2026-05-05
413 0116 CHOW SANG SANG HOLDINGS INTERNATIONAL LIMITED:O 7,295,000 -4,000 1.09 -0.00 -45,520 2026-05-05
414 3320 CHINA RESOURCES PHARMACEUTICAL GROUP LIMITED:O 160,028,100 -9,000 2.55 -0.00 -46,350 2026-05-05
415 2416 Edianyun Limited:O 7,399,500 -10,000 1.46 -0.00 -47,000 2026-05-05
416 1515 China Resources Medical Holdings Company Limited:O 134,265,500 -17,000 10.35 -0.00 -48,620 2026-05-05
417 2866 COSCO SHIPPING Development Co., Ltd.:H 450,322,000 -46,000 13.07 -0.00 -50,600 2026-05-05
418 6808 SUN ART RETAIL GROUP LIMITED:O 83,270,500 -36,500 0.87 -0.00 -55,115 2026-05-05
419 1686 SUNEVISION HOLDINGS LTD.:O 51,788,794 -9,000 2.19 -0.00 -58,680 2026-05-05
420 6616 Global New Material International Holdings Limited:O 258,364,000 -8,000 20.69 -0.00 -70,640 2026-05-05
421 9885 YSB Inc.:O 56,318,800 -14,200 8.19 -0.00 -72,704 2026-05-05
422 2469 Fenbi Ltd.:O 166,482,000 -91,000 7.54 -0.00 -78,260 2026-05-05
423 9669 Beisen Holding Limited:O 1,258,600 -23,600 0.17 -0.00 -83,544 2026-05-05
424 2687 Shanghai Able Digital Science&Tech Co., Ltd.:H 2,500 -600 0.00 -0.00 -84,060 2026-05-05
425 1199 COSCO SHIPPING Ports Limited:O 161,402,502 -16,000 4.08 -0.00 -84,800 2026-05-05
426 3423 CMS Hang Seng Tech Index ETF:Unit 1,661,430 -10,000 3.02 -0.02 -88,100 2026-05-05
427 2001 China New Higher Education Group Limited:O 79,311,871 -127,000 4.02 -0.01 -91,440 2026-05-05
428 0327 PAX Global Technology Limited:O 15,629,000 -23,000 1.47 -0.00 -92,000 2026-05-05
429 0880 SJM Holdings Limited:O 205,055,194 -49,000 2.89 -0.00 -100,940 2026-05-05
430 3088 ChinaAMC Hang Seng TECH Index ETF:Unit 39,635,200 -16,200 20.37 -0.01 -101,331 2026-05-05
431 2279 Yonghe Medical Group Co., Ltd.:O 9,492,000 -49,000 1.81 -0.01 -101,920 2026-05-05
432 2616 CStone Pharmaceuticals:O 35,205,500 -11,000 2.20 -0.00 -103,730 2026-05-05
433 3383 Agile Group Holdings Limited (KY):O 186,264,000 -420,000 3.69 -0.01 -107,100 2026-05-05
434 3311 CHINA STATE CONSTRUCTION INTERNATIONAL HOLDINGS LIMITED:O 235,589,821 -12,000 4.46 -0.00 -107,760 2026-05-05
435 6993 Blue Moon Group Holdings Limited:O 19,368,000 -36,000 0.33 -0.00 -111,240 2026-05-05
436 1666 TONG REN TANG TECHNOLOGIES CO. LTD.:H 47,920,000 -30,000 7.62 -0.00 -117,900 2026-05-05
437 1765 XJ International Holdings Co., Ltd.:O 1,889,411,865 -702,667 21.78 -0.01 -118,048 2026-05-05
438 0697 Shoucheng Holdings Limited:O 839,350,634 -76,000 10.24 -0.00 -122,360 2026-05-05
439 3309 C-MER Medical Holdings Limited:O 58,223,000 -102,000 4.80 -0.01 -123,420 2026-05-05
440 1799 Xinte Energy Co., Ltd.:H 82,840,400 -20,000 22.02 -0.01 -126,800 2026-05-05
441 9990 Archosaur Games Inc.:O 34,923,000 -55,000 4.35 -0.01 -130,900 2026-05-05
442 0659 CTF Services Limited (BM):O 2,278,728 -16,000 0.05 -0.00 -132,800 2026-05-05
443 3070 Ping An of China CSI HK Dividend ETF:Unit 1,233,200 -3,100 4.79 -0.01 -132,804 2026-05-05
444 0257 China Everbright Environment Group Limited (b1961-07-10):O 509,526,899 -23,826 8.29 -0.00 -135,570 2026-05-05
445 3369 QINHUANGDAO PORT CO., LTD.:H 24,736,000 -59,500 2.98 -0.01 -144,585 2026-05-05
446 2678 Texhong International Group Limited:O 11,492,500 -19,500 1.25 -0.00 -145,665 2026-05-05
447 0762 CHINA UNICOM (HONG KONG) LIMITED:O 1,439,465,626 -20,000 4.70 -0.00 -146,400 2026-05-05
448 6996 Antengene Corporation Limited:O 9,552,000 -30,500 1.41 -0.00 -147,925 2026-05-05
449 0081 CHINA OVERSEAS GRAND OCEANS GROUP LIMITED:O 236,213,308 -55,000 6.64 -0.00 -158,400 2026-05-05
450 0650 Productive Technologies Company Limited (BM):O 91,278,000 -200,000 1.23 -0.00 -162,000 2026-05-05
451 3174 CSOP China Healthcare Disruption Index ETF:Unit 295,700 -47,000 0.12 -0.02 -164,688 2026-05-05
452 0308 CHINA TRAVEL INTERNATIONAL INVESTMENT HONG KONG LIMITED:O 139,343,080 -148,000 2.52 -0.00 -165,760 2026-05-05
453 1951 Jinxin Fertility Group Limited:O 691,658,609 -69,500 25.57 -0.00 -166,800 2026-05-05
454 0412 SHANDONG HI-SPEED HOLDINGS GROUP LIMITED:O 229,075,000 -135,000 3.81 -0.00 -167,400 2026-05-05
455 0719 Shandong Xinhua Pharmaceutical Company Limited:H 25,104,100 -28,000 12.87 -0.01 -171,080 2026-05-05
456 2570 Shanghai REFIRE Group Limited:H 4,214,060 -4,340 6.78 -0.01 -175,510 2026-05-05
457 6603 IFBH Limited:O 7,352,800 -17,200 2.78 -0.01 -177,676 2026-05-05
458 1836 Stella International Holdings Limited:O 16,962,000 -12,500 2.01 -0.00 -184,625 2026-05-05
459 1890 China Kepei Education Group Limited:O 72,312,200 -190,000 3.59 -0.01 -193,800 2026-05-05
460 6099 China Merchants Securities Co., Ltd.:H 100,206,520 -15,400 7.86 -0.00 -215,446 2026-05-05
461 2555 Sichuan Baicha Baidao Industrial Co., Ltd.:H 29,815,400 -36,000 2.02 -0.00 -219,960 2026-05-05
462 2665 Seyond Holdings Ltd.:O 2,789,500 -29,000 0.21 -0.00 -221,270 2026-05-05
463 1341 Hao Tian International Construction Investment Group Limited:O 2,415,080,000 -9,688,000 21.77 -0.09 -222,824 2026-05-05
464 2562 Synagistics Limited (KY):A 86,593,500 -82,000 18.90 -0.02 -227,140 2026-05-05
465 2443 Autostreets Development Limited:O 59,626,200 -126,200 7.16 -0.02 -238,518 2026-05-05
466 9959 Linklogis Inc.:B 35,629,500 -98,000 1.89 -0.01 -245,000 2026-05-05
467 9676 Shiyue Daotian Group Co., Ltd.:H 27,611,100 -41,400 2.61 -0.00 -257,922 2026-05-05
468 0777 NetDragon Websoft Holdings Limited:O 17,828,000 -30,000 3.39 -0.01 -264,600 2026-05-05
469 0558 L.K. Technology Holdings Limited:O 46,485,000 -97,500 3.41 -0.01 -273,000 2026-05-05
470 9923 YEAHKA LIMITED:O 11,560,800 -44,000 2.51 -0.01 -273,680 2026-05-05
471 2583 Shenzhen Hipine Precision Technology Co., Ltd.:H 186,200 -3,300 0.32 -0.01 -311,520 2026-05-05
472 0095 LVGEM (China) Real Estate Investment Company Limited:O 397,006,000 -1,154,000 6.24 -0.02 -317,350 2026-05-05
473 1516 Sunac Services Holdings Limited:O 292,588,257 -313,000 9.60 -0.01 -325,520 2026-05-05
474 1691 JS Global Lifestyle Company Limited:O 115,019,500 -188,500 3.31 -0.01 -326,105 2026-05-05
475 6887 Sunshine Lake Pharma Co., Ltd.:H 28,395,250 -7,200 25.34 -0.01 -328,464 2026-05-05
476 1141 CMBC Capital Holdings Limited:O 52,759,000 -137,750 4.81 -0.01 -333,355 2026-05-05
477 2669 China Overseas Property Holdings Limited:O 257,315,002 -85,000 7.84 -0.00 -337,450 2026-05-05
478 2828 Hang Seng China Enterprises Index ETF:Unit 9,496,800 -3,800 2.65 -0.00 -340,252 2026-05-05
479 0041 GREAT EAGLE HOLDINGS LIMITED:O 12,364,999 -19,000 1.65 -0.00 -342,760 2026-05-05
480 1999 Man Wah Holdings Limited:O 482,444,429 -80,000 12.44 -0.00 -344,800 2026-05-05
481 2068 China Aluminum International Engineering Corporation Limited:H 23,080,000 -138,000 5.78 -0.03 -360,180 2026-05-05
482 0017 NEW WORLD DEVELOPMENT COMPANY LIMITED:O 68,453,000 -41,000 2.72 -0.00 -360,800 2026-05-05
483 1958 BAIC Motor Corporation Limited:H 226,568,000 -280,500 8.99 -0.01 -389,895 2026-05-05
484 2648 Anjoy Foods Group Co., Ltd.:H 10,782,862 -4,400 26.96 -0.01 -396,000 2026-05-05
485 7489 VOYAH Automotive Technology Co., Ltd.:H 180,874,239 -68,895 20.43 -0.01 -414,059 2026-05-05
486 2888 STANDARD CHARTERED PLC:O 19,842,372 -2,350 0.89 -0.00 -451,670 2026-05-05
487 1709 DL Holdings Group Limited (KY):O 239,548,000 -424,000 11.85 -0.02 -453,680 2026-05-05
488 6198 Qingdao Port International Co., Ltd.:H 138,632,471 -60,000 12.61 -0.01 -462,000 2026-05-05
489 3396 Legend Holdings Corporation:H 87,482,300 -50,800 6.88 -0.00 -483,616 2026-05-05
490 2013 Weimob Inc.:O 436,284,000 -327,000 10.56 -0.01 -487,230 2026-05-05
491 2460 China Resources Beverage (Holdings) Company Limited:O 63,232,250 -61,000 2.64 -0.00 -532,530 2026-05-05
492 1972 SWIRE PROPERTIES LIMITED:O 51,243,138 -21,600 0.89 -0.00 -539,568 2026-05-05
493 2522 Jiangxi Rimag Group Co., Ltd.:H 48,345,500 -68,500 16.76 -0.02 -567,865 2026-05-05
494 2356 DAH SING BANKING GROUP LIMITED:O 2,237,200 -45,600 0.16 -0.00 -575,016 2026-05-05
495 0314 Sipai Health Technology Co., Ltd.:O 35,420,400 -408,600 4.80 -0.06 -584,298 2026-05-05
496 3268 MeiG Smart Technology Co., Ltd:H 3,726,800 -27,100 9.26 -0.07 -585,902 2026-05-05
497 2343 PACIFIC BASIN SHIPPING LIMITED:O 501,386,378 -192,000 9.70 -0.00 -595,200 2026-05-05
498 3339 Lonking Holdings Limited:O 90,332,349 -183,000 2.11 -0.00 -603,900 2026-05-05
499 3918 NagaCorp Ltd.:O 46,924,349 -154,000 1.06 -0.00 -608,300 2026-05-05
500 7618 JINGDONG Industrials, Inc.:O 3,269,800 -43,600 0.12 -0.00 -609,528 2026-05-05
501 9985 WEILONG Delicious Global Holdings Ltd:O 53,341,608 -68,200 2.19 -0.00 -627,440 2026-05-05
502 2652 CF PharmTech, Inc. (CN):H 1,331,500 -28,500 0.44 -0.01 -627,570 2026-05-05
503 0004 Wharf (Holdings) Limited (The):O 754,950 -25,000 0.02 -0.00 -633,500 2026-05-05
504 1070 TCL Electronics Holdings Limited:O 222,763,097 -43,000 8.84 -0.00 -645,000 2026-05-05
505 2565 PegBio Co., Ltd.:H 190,700 -23,650 0.07 -0.01 -658,889 2026-05-05
506 1310 HKBN Ltd.:O 20,199,000 -94,500 1.37 -0.01 -673,785 2026-05-05
507 6049 POLY PROPERTY SERVICES CO., LTD.:H 24,649,664 -22,400 7.10 -0.01 -688,576 2026-05-05
508 0570 CHINA TRADITIONAL CHINESE MEDICINE HOLDINGS CO. LIMITED:O 482,296,002 -422,000 9.58 -0.01 -725,840 2026-05-05
509 1928 Sands China Ltd.:O 62,891,440 -46,000 0.78 -0.00 -732,320 2026-05-05
510 9626 Bilibili Inc.:Z ord 72,303,508 -4,440 20.94 -0.00 -751,248 2026-05-05
511 6168 Zhou Liu Fu Jewellery Co., Ltd.:H 4,776,600 -47,600 1.75 -0.02 -783,496 2026-05-05
512 2202 China Vanke Company Limited:H 631,956,745 -245,200 28.64 -0.01 -784,640 2026-05-05
513 2197 Clover Biopharmaceuticals, Ltd.:O 70,981,000 -273,000 5.47 -0.02 -788,970 2026-05-05
514 2172 MicroPort NeuroScientific Corporation:O 39,098,198 -85,000 6.79 -0.01 -867,000 2026-05-05
515 2506 Xunfei Healthcare Technology Co., Ltd.:H 2,423,200 -12,300 3.13 -0.02 -872,070 2026-05-05
516 2232 Crystal International Group Limited:O 36,664,847 -144,500 1.29 -0.01 -901,680 2026-05-05
517 3958 Orient Securities Company Limited:H 298,641,400 -140,000 29.07 -0.01 -905,800 2026-05-05
518 2714 Muyuan Foods Co., Ltd. (CN):H 9,051,700 -22,500 2.92 -0.01 -919,800 2026-05-05
519 1675 AsiaInfo Technologies Limited:O 62,406,000 -177,200 6.64 -0.02 -1,008,268 2026-05-05
520 6618 JD Health International Inc.:O 231,933,430 -22,100 7.22 -0.00 -1,009,528 2026-05-05
521 1456 Guolian Minsheng Securities Company Limited:H 108,781,500 -221,500 24.58 -0.05 -1,023,330 2026-05-05
522 6098 Country Garden Services Holdings Company Limited:O 462,199,082 -180,000 14.19 -0.01 -1,130,400 2026-05-05
523 2727 Shanghai Electric Group Company Limited:H 187,160,000 -290,000 6.40 -0.01 -1,131,000 2026-05-05
524 0855 CHINA WATER AFFAIRS GROUP LIMITED:O 95,188,100 -232,000 5.85 -0.01 -1,171,600 2026-05-05
525 0861 DIGITAL CHINA HOLDINGS LIMITED:O 79,646,150 -502,000 4.76 -0.03 -1,184,720 2026-05-05
526 2631 SICC Co., Ltd:H 6,046,100 -18,400 11.01 -0.03 -1,184,960 2026-05-05
527 0552 China Communications Services Corporation Limited:H 248,472,870 -278,000 10.39 -0.01 -1,200,960 2026-05-05
528 2142 HBM Holdings Limited (KY):O 20,459,000 -93,000 2.35 -0.01 -1,215,510 2026-05-05
529 0669 TECHTRONIC INDUSTRIES COMPANY LIMITED:O 10,028,430 -11,000 0.55 -0.00 -1,217,700 2026-05-05
530 0168 TSINGTAO BREWERY COMPANY LIMITED:H 91,824,944 -23,973 14.02 -0.00 -1,292,145 2026-05-05
531 6683 Star Plus Legend Holdings Limited:O 57,844,500 -229,000 6.08 -0.02 -1,296,140 2026-05-05
532 3200 Shenzhen Han's CNC Technology Co., Ltd.:H 270,800 -9,600 0.47 -0.02 -1,322,880 2026-05-05
533 3931 CALB Group Co., Ltd.:H 72,817,600 -37,400 9.56 -0.00 -1,329,944 2026-05-05
534 1405 DPC Dash Ltd:O 7,748,428 -29,700 5.89 -0.02 -1,470,150 2026-05-05
535 0694 Beijing Capital International Airport Company Limited:H 117,012,000 -816,000 6.23 -0.04 -1,574,880 2026-05-05
536 2252 Shanghai MicroPort MedBot (Group) Co., Ltd.:H 43,527,549 -50,000 4.22 -0.00 -1,583,000 2026-05-05
537 2268 WuXi XDC Cayman Inc.:O 88,036,197 -27,500 6.99 -0.00 -1,590,875 2026-05-05
538 0107 SICHUAN EXPRESSWAY COMPANY LIMITED:H 84,768,207 -298,000 9.47 -0.03 -1,641,980 2026-05-05
539 3393 Wasion Holdings Limited:O 15,898,000 -62,000 1.52 -0.01 -1,682,680 2026-05-05
540 1052 Yuexiu Transport Infrastructure Limited:O 331,104,000 -426,000 19.79 -0.03 -1,708,260 2026-05-05
541 2661 QingSong Health Corporation:O 468,000 -29,800 0.23 -0.01 -1,719,460 2026-05-05
542 1798 China Datang Corporation Renewable Power Co., Limited:H 448,732,200 -1,030,000 17.94 -0.04 -1,720,100 2026-05-05
543 2698 Softcare Limited:O 13,624,475 -63,400 2.19 -0.01 -1,781,540 2026-05-05
544 1186 China Railway Construction Corporation Limited:H 419,736,738 -350,000 20.22 -0.02 -1,841,000 2026-05-05
545 0588 Beijing North Star Company Limited:H 100,530,000 -2,182,000 14.22 -0.31 -1,898,340 2026-05-05
546 1112 Health and Happiness (H&H) International Holdings Limited:O 52,990,680 -136,000 8.21 -0.02 -1,932,560 2026-05-05
547 1658 Postal Savings Bank of China Co., Ltd.:H 795,518,234 -396,539 4.01 -0.00 -2,030,280 2026-05-05
548 1789 AK Medical Holdings Limited:O 105,332,664 -324,000 9.37 -0.03 -2,031,480 2026-05-05
549 2357 AviChina Industry & Technology Company Limited:H 404,891,635 -583,000 6.52 -0.01 -2,034,670 2026-05-05
550 0590 LUK FOOK HOLDINGS (INTERNATIONAL) LIMITED:O 28,188,232 -92,000 4.80 -0.02 -2,064,480 2026-05-05
551 2218 YANTAI NORTH ANDRE JUICE CO., LTD.:H 7,621,520 -132,500 11.97 -0.21 -2,072,300 2026-05-05
552 0338 SINOPEC SHANGHAI PETROCHEMICAL COMPANY LIMITED:H 182,506,000 -1,626,000 5.68 -0.05 -2,146,320 2026-05-05
553 0874 GUANGZHOU BAIYUNSHAN PHARMACEUTICAL HOLDINGS COMPANY LIMITED:H 50,693,062 -134,000 23.05 -0.06 -2,233,780 2026-05-05
554 2015 Li Auto Inc.:A 216,989,314 -32,800 12.04 -0.00 -2,284,520 2026-05-05
555 1833 PING AN HEALTHCARE AND TECHNOLOGY COMPANY LIMITED:O 225,084,878 -209,400 10.41 -0.01 -2,288,742 2026-05-05
556 3319 A-Living Smart City Services Co., Ltd.:H 144,007,500 -1,063,750 10.15 -0.07 -2,329,613 2026-05-05
557 6613 Lens Technology Co., Ltd.:H 33,208,553 -136,800 11.01 -0.05 -2,329,704 2026-05-05
558 3347 Hangzhou Tigermed Consulting Co., Ltd.:H 28,656,079 -59,500 23.27 -0.05 -2,351,440 2026-05-05
559 2582 Jiangsu Guofu Hydrogen Energy Equipment Co., Ltd.:H 9,714,950 -85,300 9.58 -0.08 -2,424,226 2026-05-05
560 9678 Unisound AI Technology Co., Ltd.:H 675,742 -8,420 1.56 -0.02 -2,485,584 2026-05-05
561 2158 Yidu Tech Inc.:O 87,621,048 -425,600 8.59 -0.04 -2,532,320 2026-05-05
562 0363 SHANGHAI INDUSTRIAL HOLDINGS LIMITED:O 43,104,601 -169,000 3.96 -0.02 -2,585,700 2026-05-05
563 1585 Yadea Group Holdings Ltd.:O 100,842,974 -214,000 3.24 -0.01 -2,615,080 2026-05-05
564 3881 CiDi Inc.:H 3,127,300 -101,300 0.74 -0.02 -2,735,100 2026-05-05
565 2276 Shanghai Conant Optical Co., Ltd.:H 8,211,069 -61,400 1.62 -0.01 -2,802,296 2026-05-05
566 0683 KERRY PROPERTIES LIMITED:O 46,325,633 -116,500 3.19 -0.01 -2,814,640 2026-05-05
567 2432 SHENZHEN DOBOT CORP LTD:H 22,090,800 -91,600 5.61 -0.02 -2,865,248 2026-05-05
568 0001 CK Hutchison Holdings Limited:O 35,915,488 -49,000 0.94 -0.00 -3,332,000 2026-05-05
569 1773 Tianli International Holdings Limited:O 240,243,215 -2,037,000 11.43 -0.10 -3,381,420 2026-05-05
570 0656 FOSUN INTERNATIONAL LIMITED:O 270,327,000 -825,500 3.30 -0.01 -3,417,570 2026-05-05
571 6862 HAIDILAO INTERNATIONAL HOLDING LTD.:O 204,936,692 -246,000 3.68 -0.00 -3,507,960 2026-05-05
572 6979 ZJLD Group Inc:O 64,354,700 -421,800 1.90 -0.01 -3,572,646 2026-05-05
573 3996 China Energy Engineering Corporation Limited (CN):H 532,646,000 -2,916,000 5.75 -0.03 -3,615,840 2026-05-05
574 0290 GoFintech Quantum Innovation Limited:O 15,530,000 -452,000 0.15 -0.00 -3,751,600 2026-05-05
575 0316 ORIENT OVERSEAS (INTERNATIONAL) LIMITED:O 14,378,100 -27,500 2.18 -0.00 -3,786,750 2026-05-05
576 1117 China Modern Dairy Holdings Ltd.:O 927,768,000 -2,922,000 11.72 -0.04 -3,798,600 2026-05-05
577 2588 BOC AVIATION LIMITED:O 10,329,591 -47,800 1.49 -0.01 -3,845,510 2026-05-05
578 1333 Breton Technology Co., Ltd.:H 2,640,800 -157,200 1.05 -0.06 -3,857,688 2026-05-05
579 699 NINGBO JOYSON ELECTRONIC CORP.:H 13,074,000 -230,500 8.43 -0.15 -3,895,450 2026-05-05
580 1318 Mao Geping Cosmetics Co., Ltd.:H 39,538,629 -55,400 8.07 -0.01 -3,922,320 2026-05-05
581 0297 Sinofert Holdings Limited:O 1,062,872,200 -2,442,000 15.13 -0.03 -3,931,620 2026-05-05
582 0038 FIRST TRACTOR COMPANY LIMITED:H 125,407,130 -438,000 32.00 -0.11 -3,950,760 2026-05-05
583 1208 MMG Limited (HK):O 625,565,565 -488,000 5.15 -0.00 -4,035,760 2026-05-05
584 6886 Huatai Securities Co., Ltd.:H 314,896,400 -247,400 18.32 -0.01 -4,072,204 2026-05-05
585 0179 JOHNSON ELECTRIC HOLDINGS LIMITED:O 21,509,827 -195,000 2.30 -0.02 -4,075,500 2026-05-05
586 1113 CK Asset Holdings Limited (KY):O 25,017,894 -83,500 0.71 -0.00 -4,158,300 2026-05-05
587 3968 CHINA MERCHANTS BANK CO., LTD.:H 112,506,464 -94,000 2.45 -0.00 -4,427,400 2026-05-05
588 3877 CSSC (Hong Kong) Shipping Company Limited:O 581,440,130 -1,786,000 9.38 -0.03 -4,447,140 2026-05-05
589 0772 China Literature Limited:O 84,630,275 -180,200 8.29 -0.02 -4,587,892 2026-05-05
590 1428 Bright Smart Securities & Commodities Group Limited:O 61,388,000 -370,000 3.62 -0.02 -4,665,700 2026-05-05
591 1316 Nexteer Automotive Group Limited:O 104,323,476 -975,000 4.16 -0.04 -4,699,500 2026-05-05
592 9696 Tianqi Lithium Corporation:H 44,136,466 -72,600 19.26 -0.03 -4,751,670 2026-05-05
593 2145 Shanghai Chicmax Cosmetic Co., Ltd.:H 15,897,608 -93,600 7.70 -0.05 -4,914,000 2026-05-05
594 0177 Jiangsu Expressway Company Limited:H 231,978,008 -481,500 18.98 -0.04 -5,036,490 2026-05-05
595 1368 Xtep International Holdings Limited:O 287,123,071 -1,188,500 10.23 -0.04 -5,039,240 2026-05-05
596 1952 Everest Medicines Limited:O 104,732,955 -149,000 29.62 -0.04 -5,125,600 2026-05-05
597 1929 Chow Tai Fook Jewellery Group Limited:O 69,678,334 -515,200 0.71 -0.01 -5,419,904 2026-05-05
598 2171 CARsgen Therapeutics Holdings Limited:O 79,118,938 -257,000 13.87 -0.05 -5,422,700 2026-05-05
599 2039 China International Marine Containers (Group) Co., Ltd.:H 356,443,480 -507,600 11.77 -0.02 -5,461,776 2026-05-05
600 0867 China Medical System Holdings Limited:O 418,919,550 -462,000 17.17 -0.02 -5,835,060 2026-05-05
601 0005 HSBC HOLDINGS PLC:O 99,239,935 -43,798 0.58 -0.00 -5,956,528 2026-05-05
602 6821 Asymchem Laboratories (Tianjin) Co., Ltd.:H 6,223,324 -60,000 22.36 -0.22 -5,997,000 2026-05-05
603 9868 XPeng Inc.:A 241,515,295 -99,500 15.42 -0.01 -6,243,625 2026-05-05
604 2577 InnoScience (Suzhou) Technology Holding Co., Ltd.:H 26,401,991 -92,400 5.02 -0.02 -6,329,400 2026-05-05
605 1024 Kuaishou Technology:B 544,412,994 -163,335 14.87 -0.00 -7,216,140 2026-05-05
606 0853 MicroPort Scientific Corporation:O 414,681,948 -848,500 21.63 -0.04 -7,305,585 2026-05-05
607 3618 Chongqing Rural Commercial Bank Co., Ltd.:H 331,930,411 -1,093,000 13.21 -0.04 -7,530,770 2026-05-05
608 2688 ENN Energy Holdings Limited:O 45,529,530 -126,900 4.02 -0.01 -7,759,935 2026-05-05
609 0425 Minth Group Limited:O 94,697,654 -229,465 8.08 -0.02 -7,884,417 2026-05-05
610 2591 Guangzhou Innogen Pharmaceutical Group Co., Ltd.:H 1,671,600 -592,000 0.40 -0.14 -8,370,880 2026-05-05
611 1359 CHINA CINDA ASSET MANAGEMENT CO., LTD.:H 2,440,069,500 -7,446,000 17.98 -0.05 -8,413,980 2026-05-05
612 0386 CHINA PETROLEUM & CHEMICAL CORPORATION:H 2,319,180,184 -1,858,000 9.75 -0.01 -8,546,800 2026-05-05
613 6196 Bank of Zhengzhou Co., Ltd.:H 848,900,783 -8,426,000 42.02 -0.42 -8,678,780 2026-05-05
614 6936 S.F. Holding Co., Ltd.:H 35,684,662 -257,400 14.87 -0.11 -9,029,592 2026-05-05
615 2382 Sunny Optical Technology (Group) Company Limited:O 97,477,962 -139,400 9.03 -0.01 -9,284,040 2026-05-05
616 470 Wuxi Lead Intelligent Equipment Co., Ltd. (CN):H 2,544,300 -179,100 2.35 -0.17 -9,357,975 2026-05-05
617 1882 Haitian International Holdings Limited:O 34,512,000 -458,000 2.16 -0.03 -9,737,080 2026-05-05
618 0317 CSSC Offshore & Marine Engineering (Group) Company Limited:H 37,662,000 -620,000 6.36 -0.10 -9,920,000 2026-05-05
619 0467 United Energy Group Limited:O 527,934,000 -19,620,000 2.04 -0.08 -10,006,200 2026-05-05
620 1288 AGRICULTURAL BANK OF CHINA LIMITED:H 3,322,971,454 -1,859,674 10.81 -0.01 -10,916,286 2026-05-05
621 2359 WuXi AppTec Co., Ltd.:H 42,406,327 -80,400 8.31 -0.02 -11,038,920 2026-05-05
622 1055 China Southern Airlines Company Limited:H 459,748,254 -2,714,000 9.90 -0.06 -11,045,980 2026-05-05
623 0960 Longfor Group Holdings Limited:O 305,321,199 -1,377,500 4.30 -0.02 -11,130,200 2026-05-05
624 1302 LifeTech Scientific Corporation:O 1,162,136,424 -5,414,000 25.09 -0.12 -11,261,120 2026-05-05
625 2618 JD Logistics, Inc.:O 127,386,882 -760,900 1.91 -0.01 -11,596,116 2026-05-05
626 3738 Vobile Group Limited:O 585,285,487 -3,847,000 22.57 -0.15 -12,194,990 2026-05-05
627 2419 Dekon Food and Agriculture Group:H 21,944,700 -183,900 14.24 -0.12 -12,477,615 2026-05-05
628 6666 Evergrande Property Services Group Limited:O 786,843,500 -8,582,000 7.28 -0.08 -13,216,280 2026-05-05
629 0148 Kingboard Holdings Limited:O 38,772,854 -295,500 3.50 -0.03 -13,250,220 2026-05-05
630 9633 Nongfu Spring Co., Ltd:H 71,923,429 -292,200 1.43 -0.01 -13,353,540 2026-05-05
631 9880 UBTECH ROBOTICS CORP LTD:H 51,929,363 -129,050 12.00 -0.03 -13,576,060 2026-05-05
632 3988 BANK OF CHINA LIMITED:H 4,451,040,619 -2,859,000 5.32 -0.00 -14,437,950 2026-05-05
633 0992 LENOVO GROUP LIMITED:O 816,207,806 -1,244,000 6.58 -0.01 -14,480,160 2026-05-05
634 0666 REPT BATTERO Energy Co., Ltd.:H 25,560,600 -816,800 2.74 -0.09 -14,506,368 2026-05-05
635 1114 BRILLIANCE CHINA AUTOMOTIVE HOLDINGS LIMITED:O 516,362,457 -5,355,956 10.23 -0.11 -14,728,879 2026-05-05
636 2689 Nine Dragons Paper (Holdings) Limited:O 311,883,727 -2,434,000 6.65 -0.05 -15,261,180 2026-05-05
637 3317 Shenzhen Xunce Technology Co., Ltd.:H 1,716,200 -58,900 0.64 -0.02 -15,314,000 2026-05-05
638 6699 Angelalign Technology Inc.:O 10,257,739 -182,200 6.00 -0.11 -15,960,720 2026-05-05
639 9980 Eastroc Beverage (Group) Co., Ltd. (CN):H 689,900 -98,030 1.54 0.19 -16,086,723 2026-05-05
640 1530 3SBio Inc.:O 690,497,414 -721,500 27.21 -0.03 -16,089,450 2026-05-05
641 1918 Sunac China Holdings Limited:O 1,865,367,001 -14,472,000 11.20 -0.09 -16,787,520 2026-05-05
642 3800 GCL Technology Holdings Limited (KY):O 4,729,367,909 -19,365,000 14.24 -0.06 -17,234,850 2026-05-05
643 1860 Mobvista Inc.:O 320,082,172 -958,000 20.33 -0.06 -17,387,700 2026-05-05
644 2050 ZHEJIANG SANHUA INTELLIGENT CONTROLS CO., LTD.:H 54,319,600 -506,000 11.40 -0.11 -17,618,920 2026-05-05
645 2655 Guoxia Technology Co., Ltd.:H 5,174,500 -615,300 1.31 -0.16 -17,646,804 2026-05-05
646 0631 Sany Heavy Equipment International Holdings Company Limited:O 78,332,800 -1,694,000 2.38 -0.05 -19,616,520 2026-05-05
647 9899 NetEase Cloud Music Inc.:O 13,683,710 -168,300 6.45 -0.08 -20,347,470 2026-05-05
648 1919 COSCO SHIPPING Holdings Co., Ltd.:H 301,563,561 -1,373,000 10.94 -0.05 -20,526,350 2026-05-05
649 1157 Zoomlion Heavy Industry Science and Technology Co., Ltd.:H 213,349,974 -2,636,745 13.74 -0.17 -21,093,960 2026-05-05
650 6990 Sichuan Kelun-Biotech Biopharmaceutical Co., Ltd.:H 28,214,249 -48,000 16.50 -0.03 -21,926,400 2026-05-05
651 2579 CNGR ADVANCED MATERIAL CO., LTD. (CN):H 7,704,600 -518,200 7.39 -0.50 -22,355,148 2026-05-05
652 6655 HUAXIN BUILDING MATERIALS GROUP CO., LTD.:H 72,453,200 -1,389,000 9.86 -0.19 -22,515,690 2026-05-05
653 0390 CHINA RAILWAY GROUP LIMITED:H 605,635,418 -6,609,000 14.39 -0.16 -24,982,020 2026-05-05
654 1299 AIA Group Limited:O 83,927,025 -292,400 0.80 -0.00 -25,117,160 2026-05-05
655 1797 East Buy Holding Limited:O 160,504,637 -995,089 15.15 -0.09 -25,374,770 2026-05-05
656 0670 China Eastern Airlines Corporation Limited:H 426,294,812 -6,432,000 8.42 -0.13 -25,856,640 2026-05-05
657 9606 Duality Biotherapeutics, Inc.:O 17,706,343 -99,200 19.62 -0.11 -26,704,640 2026-05-05
658 6690 Haier Smart Home Co., Ltd.:H 274,248,927 -1,278,800 9.61 -0.04 -27,366,320 2026-05-05
659 1072 Dongfang Electric Corporation Limited:H 37,523,470 -751,600 9.20 -0.18 -29,793,424 2026-05-05
660 6055 CHINA TOBACCO INTERNATIONAL (HK) COMPANY LIMITED:O 35,025,083 -1,089,000 5.06 -0.16 -31,624,560 2026-05-05
661 2423 KE Holdings Inc.:A 312,285,687 -733,100 9.30 -0.02 -34,235,770 2026-05-05
662 1800 China Communications Construction Company Limited:H 769,214,402 -8,017,729 17.41 -0.18 -35,278,008 2026-05-05
663 2208 GOLDWIND SCIENCE&TECHNOLOGY CO., LTD.:H 109,075,793 -2,138,504 14.10 -0.28 -37,915,676 2026-05-05
664 1093 CSPC PHARMACEUTICAL GROUP LIMITED:O 2,193,331,208 -4,764,000 19.04 -0.04 -40,017,600 2026-05-05
665 2899 ZIJIN MINING GROUP CO., LTD.:H 308,256,288 -1,138,000 5.15 -0.02 -40,399,000 2026-05-05
666 0522 ASMPT Limited:O 26,308,453 -250,300 6.30 -0.06 -40,873,990 2026-05-05
667 1519 J&T Global Express Limited:B 265,747,255 -4,206,000 3.36 -0.05 -41,471,160 2026-05-05
668 6181 Laopu Gold Co., Ltd.:H 9,474,594 -75,500 6.60 -0.05 -41,789,250 2026-05-05
669 0027 GALAXY ENTERTAINMENT GROUP LIMITED:O 41,393,599 -1,473,000 0.95 -0.03 -47,725,200 2026-05-05
670 1415 Cowell e Holdings Inc.:O 68,820,488 -1,522,492 7.93 -0.18 -50,150,886 2026-05-05
671 0939 CHINA CONSTRUCTION BANK CORPORATION:H 4,811,410,521 -6,241,798 2.00 -0.00 -54,802,986 2026-05-05
672 0728 CHINA TELECOM CORPORATION LIMITED:H 3,659,111,987 -10,690,000 26.37 -0.08 -54,839,700 2026-05-05
673 2788 Chuangxin Industries Holdings Limited:O 25,396,993 -2,642,915 1.22 -0.13 -57,509,830 2026-05-05
674 2057 ZTO Express (Cayman) Inc.:A 53,022,058 -296,950 9.40 -0.05 -58,410,065 2026-05-05
675 0753 Air China Limited:H 499,579,530 -13,094,000 10.08 -0.26 -64,553,420 2026-05-05
676 3808 SINOTRUK (HONG KONG) LIMITED:O 74,505,787 -1,671,637 2.70 -0.06 -65,595,036 2026-05-05
677 1378 China Hongqiao Group Limited:O 382,406,152 -2,102,000 3.85 -0.02 -69,618,240 2026-05-05
678 2600 ALUMINUM CORPORATION OF CHINA LIMITED:H 422,435,257 -6,334,000 10.71 -0.16 -74,424,500 2026-05-05
679 3330 Lingbao Gold Group Company Ltd.:H 115,989,133 -3,879,100 9.66 -0.32 -76,069,151 2026-05-05
680 3033 CSOP Hang Seng TECH Index ETF:Unit 11,237,823,600 -18,115,600 62.73 -0.10 -87,280,961 2026-05-05
681 1888 Kingboard Laminates Holdings Limited:O 121,935,000 -2,523,000 3.89 -0.08 -90,828,000 2026-05-05
682 1398 Industrial and Commercial Bank of China Limited:H 6,862,823,193 -13,220,951 7.91 -0.02 -91,224,562 2026-05-05
683 0941 China Mobile Limited (HK):O 880,243,116 -1,310,000 4.06 -0.01 -109,843,500 2026-05-05
684 9992 POP MART INTERNATIONAL GROUP LIMITED:O 130,071,877 -771,274 9.70 -0.06 -122,786,821 2026-05-05
685 2338 WEICHAI POWER CO., LTD.:H 83,951,668 -2,992,000 4.32 -0.15 -128,955,200 2026-05-05
686 2628 CHINA LIFE INSURANCE COMPANY LIMITED:H 638,271,509 -4,564,000 8.58 -0.06 -132,903,680 2026-05-05
687 9926 Akeso, Inc.:O 252,455,501 -1,133,909 27.41 -0.12 -144,913,570 2026-05-05
688 1385 Shanghai Fudan Microelectronics Group Company Limited:H 46,796,282 -4,253,544 16.46 -1.50 -174,650,517 2026-05-05
689 6869 Yangtze Optical Fibre and Cable Joint Stock Limited Company:H 112,555,781 -836,621 26.70 -0.20 -188,909,022 2026-05-05
690 1138 COSCO SHIPPING Energy Transportation Co., Ltd.:H 303,251,886 -10,192,000 23.40 -0.79 -192,424,960 2026-05-05
691 9988 Alibaba Group Holding Limited (KY):O 1,157,867,969 -4,105,491 6.03 -0.02 -538,640,419 2026-05-05
692 0700 TENCENT HOLDINGS LIMITED:O 485,256,531 -3,217,988 5.32 -0.04 -1,519,533,934 2026-05-05

Webb-site Database - Powered By Linux Group

Back to top